Location: Chenereilles
(45.4866°N, 4.0790°E)
Time: 02:17:38
(UTC+00:00)

YAOGAN 1 - Pass Details

Date: 12 November 2019
Orbit: 619 x 621 km, 98.0° (Epoch: 06 December)

Event Time Altitude Azimuth Distance (km) Brightness Sun altitude
Rises 17:32:32 0° 145° (SE) 2,886 5.8 -13.4°
Reaches altitude 10° 17:34:48 10° 138° (SE) 1,985 4.9 -13.8°
Maximum altitude 17:38:49 39° 70° (ENE) 935 3.0 -14.4°
Drops below altitude 10° 17:42:52 10° 1° (N) 1,998 5.1 -15.1°
Sets 17:45:09 0° 354° (N) 2,909 6.0 -15.5°
